Location: Belfast
(54.5830°N, 5.9330°W)
Time: 14:05:59
(UTC+01:00)

ISS - Pass Details

Date: 23 May 2017
Orbit: 402 x 408 km, 51.6° (Epoch: 26 May)

Event Time Altitude Azimuth Distance (km) Brightness Sun altitude
Exits shadow 00:15:12 25° 140° (SE) 868 -2.7 -13.6°
Drops below altitude 10° 00:17:32 10° 97° (E) 1,469 -1.2 -13.6°
Sets 00:19:48 0° 84° (E) 2,331 -0.1 -13.7°
